Location: Brunsbüttel
(52.3892°N, 10.6138°E)
Time: 23:49:39
(UTC+00:00)

Meteor 2-4 Rocket - Pass Details

Date: 19 May 2025
Orbit: 798 x 906 km, 81.2° (Epoch: 15 June)

Event Time Altitude Azimuth Distance (km) Brightness Sun altitude
Exits shadow 22:30:54 28° 172° (S) 1,568 4.5 -17.0°
Maximum altitude 22:33:56 67° 98° (E) 950 3.8 -17.1°
Drops below altitude 10° 22:39:44 10° 17° (NNE) 2,568 7.2 -17.2°
Sets 22:42:14 0° 15° (NNE) 3,523 8.2 -17.3°
